ProjectID,Date,Electric Generation,Electric Utility Import,Facility Electric Load
,YYYY-MM-DD,kW,kW,kW
429,2017-03-01,0.0,,0.0
429,2017-03-02,0.0,,0.0
429,2017-03-03,0.0,,0.0
429,2017-03-04,0.0,,0.0
429,2017-03-05,0.0,,0.0
429,2017-03-06,0.0,,0.0
429,2017-03-07,0.0,,0.0
429,2017-03-08,0.0,,0.0
429,2017-03-09,0.0,,0.0
429,2017-03-10,0.0,,0.0
429,2017-03-11,0.0,,0.0
429,2017-03-12,0.0,,0.0
429,2017-03-13,0.0,,0.0
429,2017-03-14,31.307916666666667,,31.307916666666667
429,2017-03-15,53.635416666666664,,53.635416666666664
429,2017-03-16,53.65208333333334,,53.65208333333334
429,2017-03-17,31.32041666666667,,31.32041666666667
429,2017-03-18,0.09208333333333334,,0.09208333333333334
429,2017-03-19,0.0,,0.0
429,2017-03-20,0.26625,,0.26625
429,2017-03-21,0.0,,0.0
429,2017-03-22,49.374583333333334,,49.374583333333334
429,2017-03-23,70.06916666666667,,70.06916666666667
429,2017-03-24,53.62416666666667,,53.62416666666667
429,2017-03-25,53.63458333333333,,53.63458333333333
429,2017-03-26,53.57583333333333,,53.57583333333333
429,2017-03-27,52.4475,,52.4475
429,2017-03-28,46.567499999999995,,46.567499999999995
429,2017-03-29,63.185833333333335,,63.185833333333335
429,2017-03-30,90.85041666666666,,90.85041666666666
429,2017-03-31,86.42416666666666,,86.42416666666666
429,2017-04-01,53.91083333333333,,53.91083333333333
429,2017-04-02,84.07708333333333,,84.07708333333333
429,2017-04-03,71.41291666666667,,71.41291666666667
429,2017-04-04,68.44458333333334,,68.44458333333334
429,2017-04-05,57.69291666666667,,57.69291666666667
429,2017-04-06,59.60125,,59.60125
429,2017-04-07,56.16708333333333,,56.16708333333333
429,2017-04-08,53.657916666666665,,53.657916666666665
429,2017-04-09,69.52125,,69.52125
429,2017-04-10,53.0725,,53.0725
429,2017-04-11,55.08541666666667,,55.08541666666667
429,2017-04-12,41.70333333333333,,41.70333333333333
429,2017-04-13,78.07958333333333,,78.07958333333333
429,2017-04-14,44.587916666666665,,44.587916666666665
429,2017-04-15,44.70416666666667,,44.70416666666667
429,2017-04-16,43.28041666666667,,43.28041666666667
429,2017-04-17,46.668749999999996,,46.668749999999996
429,2017-04-18,44.68958333333333,,44.68958333333333
429,2017-04-19,58.23,,58.23
429,2017-04-20,52.76083333333333,,52.76083333333333
429,2017-04-21,45.07958333333334,,45.07958333333334
429,2017-04-22,46.79708333333334,,46.79708333333334
429,2017-04-23,44.10375,,44.10375
429,2017-04-24,43.364583333333336,,43.364583333333336
429,2017-04-25,51.42875,,51.42875
429,2017-04-26,67.1975,,67.1975
429,2017-04-27,84.74666666666667,,84.74666666666667
429,2017-04-28,70.64833333333333,,70.64833333333333
429,2017-04-29,37.6025,,37.6025
429,2017-04-30,44.718333333333334,,44.718333333333334
429,2017-05-01,35.357083333333335,,35.357083333333335
429,2017-05-02,17.695,,17.695
429,2017-05-03,15.865,,15.865
429,2017-05-04,25.22375,,25.22375
429,2017-05-05,22.055833333333336,,22.055833333333336
429,2017-05-06,14.405416666666667,,14.405416666666667
429,2017-05-07,50.33416666666667,,50.33416666666667
429,2017-05-08,53.906666666666666,,53.906666666666666
429,2017-05-09,53.911249999999995,,53.911249999999995
429,2017-05-10,54.19583333333333,,54.19583333333333
429,2017-05-11,57.35874999999999,,57.35874999999999
429,2017-05-12,26.74416666666667,,26.74416666666667
429,2017-05-13,0.07833333333333332,,0.07833333333333332
429,2017-05-14,31.314999999999998,,31.314999999999998
429,2017-05-15,22.570833333333336,,22.570833333333336
429,2017-05-16,6.937916666666666,,6.937916666666666
429,2017-05-17,27.93166666666667,,27.93166666666667
429,2017-05-18,80.36291666666666,,80.36291666666666
429,2017-05-19,79.22958333333334,,79.22958333333334
429,2017-05-20,79.96333333333332,,79.96333333333332
429,2017-05-21,80.74875,,80.74875
429,2017-05-22,80.98916666666666,,80.98916666666666
429,2017-05-23,80.74083333333333,,80.74083333333333
429,2017-05-24,80.80875,,80.80875
429,2017-05-25,81.11333333333333,,81.11333333333333
429,2017-05-26,74.3325,,74.3325
429,2017-05-27,74.60125000000001,,74.60125000000001
429,2017-05-28,74.90541666666667,,74.90541666666667
429,2017-05-29,76.60916666666667,,76.60916666666667
429,2017-05-30,77.90125,,77.90125
429,2017-05-31,33.38791666666666,,33.38791666666666
429,2017-06-01,60.07708333333333,,60.07708333333333
429,2017-06-02,70.41625,,70.41625
429,2017-06-03,70.19833333333334,,70.19833333333334
429,2017-06-04,72.83125,,72.83125
429,2017-06-05,72.27499999999999,,72.27499999999999
429,2017-06-06,69.56375,,69.56375
429,2017-06-07,69.81666666666666,,69.81666666666666
429,2017-06-08,70.08666666666666,,70.08666666666666
429,2017-06-09,69.98375,,69.98375
429,2017-06-10,67.02708333333334,,67.02708333333334
429,2017-06-11,64.18791666666667,,64.18791666666667
429,2017-06-12,55.092083333333335,,55.092083333333335
429,2017-06-13,64.96041666666666,,64.96041666666666
429,2017-06-14,64.42625,,64.42625
429,2017-06-15,66.47541666666667,,66.47541666666667
429,2017-06-16,69.1825,,69.1825
429,2017-06-17,74.51,,74.51
429,2017-06-18,66.77083333333333,,66.77083333333333
429,2017-06-19,68.13250000000001,,68.13250000000001
429,2017-06-20,66.76083333333334,,66.76083333333334
429,2017-06-21,65.37208333333334,,65.37208333333334
429,2017-06-22,70.84291666666667,,70.84291666666667
429,2017-06-23,64.79916666666666,,64.79916666666666
429,2017-06-24,63.840833333333336,,63.840833333333336
429,2017-06-25,63.17291666666667,,63.17291666666667
429,2017-06-26,64.175,,64.175
429,2017-06-27,62.29833333333334,,62.29833333333334
429,2017-06-28,44.41,,44.41
429,2017-06-29,59.39958333333333,,59.39958333333333
429,2017-06-30,61.50625,,61.50625
429,2017-07-01,56.67625,,56.67625
429,2017-07-02,56.744166666666665,,56.744166666666665
429,2017-07-03,58.17291666666667,,58.17291666666667
429,2017-07-04,56.20333333333334,,56.20333333333334
429,2017-07-05,59.65166666666667,,59.65166666666667
429,2017-07-06,54.947916666666664,,54.947916666666664
429,2017-07-07,62.768750000000004,,62.768750000000004
429,2017-07-08,62.8025,,62.8025
429,2017-07-09,66.57958333333333,,66.57958333333333
429,2017-07-10,65.78083333333333,,65.78083333333333
429,2017-07-11,64.6825,,64.6825
429,2017-07-12,62.43625,,62.43625
429,2017-07-13,62.56375,,62.56375
429,2017-07-14,62.665,,62.665
429,2017-07-15,65.42458333333333,,65.42458333333333
429,2017-07-16,62.73083333333333,,62.73083333333333
429,2017-07-17,18.201666666666664,,18.201666666666664
429,2017-07-18,24.358333333333334,,24.358333333333334
429,2017-07-19,58.028333333333336,,58.028333333333336
429,2017-07-20,56.39875,,56.39875
429,2017-07-21,56.93,,56.93
429,2017-07-22,55.473749999999995,,55.473749999999995
429,2017-07-23,55.30166666666667,,55.30166666666667
429,2017-07-24,62.065416666666664,,62.065416666666664
429,2017-07-25,63.04666666666666,,63.04666666666666
429,2017-07-26,62.763749999999995,,62.763749999999995
429,2017-07-27,60.38708333333333,,60.38708333333333
429,2017-07-28,60.35958333333334,,60.35958333333334
429,2017-07-29,60.57208333333333,,60.57208333333333
429,2017-07-30,60.916666666666664,,60.916666666666664
429,2017-07-31,61.70375000000001,,61.70375000000001
429,2017-08-01,62.99791666666667,,62.99791666666667
429,2017-08-02,57.29333333333333,,57.29333333333333
429,2017-08-03,33.295,,33.295
429,2017-08-04,4.774166666666667,,4.774166666666667
429,2017-08-05,20.75166666666667,,20.75166666666667
429,2017-08-06,40.23,,40.23
429,2017-08-07,36.393750000000004,,36.393750000000004
429,2017-08-08,42.1425,,42.1425
429,2017-08-09,42.180416666666666,,42.180416666666666
429,2017-08-10,20.4975,,20.4975
429,2017-08-11,0.0,,0.0
429,2017-08-12,0.0,,0.0
429,2017-08-13,22.715,,22.715
429,2017-08-14,41.339166666666664,,41.339166666666664
429,2017-08-15,42.31458333333333,,42.31458333333333
429,2017-08-16,35.57791666666667,,35.57791666666667
429,2017-08-17,41.100833333333334,,41.100833333333334
429,2017-08-18,40.6175,,40.6175
429,2017-08-19,42.40625,,42.40625
429,2017-08-20,10.52125,,10.52125
429,2017-08-21,25.045833333333334,,25.045833333333334
429,2017-08-22,26.49791666666667,,26.49791666666667
429,2017-08-23,42.6975,,42.6975
429,2017-08-24,47.379999999999995,,47.379999999999995
429,2017-08-25,34.375416666666666,,34.375416666666666
429,2017-08-26,42.044583333333335,,42.044583333333335
429,2017-08-27,69.46375,,69.46375
429,2017-08-28,69.35791666666667,,69.35791666666667
429,2017-08-29,51.41583333333333,,51.41583333333333
429,2017-08-30,52.526250000000005,,52.526250000000005
429,2017-08-31,43.07125,,43.07125
429,2017-09-01,32.8125,,32.8125
429,2017-09-02,50.14083333333334,,50.14083333333334
429,2017-09-03,46.88708333333333,,46.88708333333333
429,2017-09-04,54.145833333333336,,54.145833333333336
429,2017-09-05,50.750416666666666,,50.750416666666666
429,2017-09-06,42.88166666666667,,42.88166666666667
429,2017-09-07,48.49916666666667,,48.49916666666667
429,2017-09-08,50.462916666666665,,50.462916666666665
429,2017-09-09,56.059583333333336,,56.059583333333336
429,2017-09-10,56.275416666666665,,56.275416666666665
429,2017-09-11,56.267500000000005,,56.267500000000005
429,2017-09-12,57.78541666666666,,57.78541666666666
429,2017-09-13,47.94125,,47.94125
429,2017-09-14,49.17166666666666,,49.17166666666666
429,2017-09-15,44.887499999999996,,44.887499999999996
429,2017-09-16,46.67458333333334,,46.67458333333334
429,2017-09-17,45.080000000000005,,45.080000000000005
429,2017-09-18,31.332916666666666,,31.332916666666666
429,2017-09-19,34.651666666666664,,34.651666666666664
429,2017-09-20,40.902499999999996,,40.902499999999996
429,2017-09-21,42.14125,,42.14125
429,2017-09-22,45.82208333333333,,45.82208333333333
429,2017-09-23,33.92333333333333,,33.92333333333333
429,2017-09-24,0.0,,0.0
429,2017-09-25,26.195833333333336,,26.195833333333336
429,2017-09-26,44.51083333333333,,44.51083333333333
429,2017-09-27,0.0,,0.0
429,2017-09-28,0.0,,0.0
429,2017-09-29,0.0,,0.0
429,2017-09-30,0.0,,0.0
429,2017-10-01,0.0,,0.0
429,2017-10-02,0.0,,0.0
429,2017-10-03,0.0,,0.0
429,2017-10-04,0.0,,0.0
429,2017-10-05,0.0,,0.0
429,2017-10-06,0.0,,0.0
429,2017-10-07,0.0,,0.0
429,2017-10-08,0.0,,0.0
429,2017-10-09,0.0,,0.0
429,2017-10-10,0.0,,0.0
429,2017-10-11,0.0,,0.0
429,2017-10-12,0.0,,0.0
429,2017-10-13,0.0,,0.0
429,2017-10-14,0.0,,0.0
429,2017-10-15,0.0,,0.0
429,2017-10-16,0.0,,0.0
429,2017-10-17,0.0,,0.0
429,2017-10-18,31.096249999999998,,31.096249999999998
429,2017-10-19,29.53,,29.53
429,2017-10-20,29.808333333333334,,29.808333333333334
429,2017-10-21,25.607083333333335,,25.607083333333335
429,2017-10-22,24.448333333333334,,24.448333333333334
429,2017-10-23,35.41625,,35.41625
429,2017-10-24,37.29875,,37.29875
429,2017-10-25,30.569166666666664,,30.569166666666664
429,2017-10-26,28.88875,,28.88875
429,2017-10-27,28.21375,,28.21375
429,2017-10-28,24.773750000000003,,24.773750000000003
429,2017-10-29,24.315833333333334,,24.315833333333334
429,2017-10-30,26.243333333333336,,26.243333333333336
429,2017-10-31,25.248333333333335,,25.248333333333335
429,2017-11-01,52.35166666666667,,52.35166666666667
429,2017-11-02,97.49041666666666,,97.49041666666666
429,2017-11-03,103.03291666666667,,103.03291666666667
429,2017-11-04,101.21583333333332,,101.21583333333332
429,2017-11-05,100.90666666666668,,100.90666666666668
429,2017-11-06,101.47541666666666,,101.47541666666666
429,2017-11-07,86.75833333333333,,86.75833333333333
429,2017-11-08,90.91791666666667,,90.91791666666667
429,2017-11-09,66.15458333333333,,66.15458333333333
429,2017-11-10,118.14791666666667,,118.14791666666667
429,2017-11-11,118.74583333333334,,118.74583333333334
429,2017-11-12,112.90666666666668,,112.90666666666668
429,2017-11-13,107.76916666666666,,107.76916666666666
429,2017-11-14,111.4425,,111.4425
429,2017-11-15,107.05708333333332,,107.05708333333332
429,2017-11-16,88.43333333333334,,88.43333333333334
429,2017-11-17,103.35291666666666,,103.35291666666666
429,2017-11-18,99.02708333333334,,99.02708333333334
429,2017-11-19,90.99125,,90.99125
429,2017-11-20,105.86583333333334,,105.86583333333334
429,2017-11-21,88.14125,,88.14125
429,2017-11-22,54.65833333333333,,54.65833333333333
429,2017-11-23,33.44375,,33.44375
429,2017-11-24,63.22208333333333,,63.22208333333333
429,2017-11-25,83.42791666666666,,83.42791666666666
429,2017-11-26,96.7575,,96.7575
429,2017-11-27,109.675,,109.675
429,2017-11-28,105.01083333333334,,105.01083333333334
429,2017-11-29,91.54541666666667,,91.54541666666667
429,2017-11-30,104.21166666666666,,104.21166666666666
429,2017-12-01,102.76541666666667,,102.76541666666667
429,2017-12-02,86.19625,,86.19625
429,2017-12-03,89.57625,,89.57625
429,2017-12-04,102.54541666666667,,102.54541666666667
429,2017-12-05,84.45791666666666,,84.45791666666666
429,2017-12-06,92.97166666666668,,92.97166666666668
429,2017-12-07,109.47958333333334,,109.47958333333334
429,2017-12-08,107.21625,,107.21625
429,2017-12-09,106.46833333333332,,106.46833333333332
429,2017-12-10,103.33916666666666,,103.33916666666666
429,2017-12-11,112.50791666666667,,112.50791666666667
429,2017-12-12,108.2975,,108.2975
429,2017-12-13,112.30375,,112.30375
429,2017-12-14,91.40249999999999,,91.40249999999999
429,2017-12-15,112.94749999999999,,112.94749999999999
429,2017-12-16,109.19875,,109.19875
429,2017-12-17,103.08125,,103.08125
429,2017-12-18,56.62625,,56.62625
429,2017-12-19,42.26375,,42.26375
429,2017-12-20,45.314166666666665,,45.314166666666665
429,2017-12-21,48.06916666666667,,48.06916666666667
429,2017-12-22,44.33416666666667,,44.33416666666667
429,2017-12-23,42.15958333333334,,42.15958333333334
429,2017-12-24,40.60458333333333,,40.60458333333333
429,2017-12-25,41.516666666666666,,41.516666666666666
429,2017-12-26,45.17416666666667,,45.17416666666667
429,2017-12-27,48.67291666666667,,48.67291666666667
429,2017-12-28,49.50541666666667,,49.50541666666667
429,2017-12-29,45.56583333333333,,45.56583333333333
429,2017-12-30,43.405,,43.405
429,2017-12-31,42.86041666666667,,42.86041666666667
429,2018-01-01,45.205000000000005,,45.205000000000005
429,2018-01-02,48.58541666666667,,48.58541666666667
429,2018-01-03,50.115833333333335,,50.115833333333335
429,2018-01-04,68.14874999999999,,68.14874999999999
429,2018-01-05,118.15583333333332,,118.15583333333332
429,2018-01-06,114.20416666666667,,114.20416666666667
429,2018-01-07,119.75833333333333,,119.75833333333333
429,2018-01-08,123.54666666666667,,123.54666666666667
429,2018-01-09,124.50625000000001,,124.50625000000001
429,2018-01-10,120.96125,,120.96125
429,2018-01-11,73.30458333333333,,73.30458333333333
429,2018-01-12,49.655,,49.655
429,2018-01-13,42.29291666666666,,42.29291666666666
429,2018-01-14,95.7625,,95.7625
429,2018-01-15,104.66000000000001,,104.66000000000001
429,2018-01-16,97.83416666666666,,97.83416666666666
429,2018-01-17,116.10708333333334,,116.10708333333334
429,2018-01-18,126.00166666666667,,126.00166666666667
429,2018-01-19,119.42916666666667,,119.42916666666667
429,2018-01-20,100.08125,,100.08125
429,2018-01-21,99.93875000000001,,99.93875000000001
429,2018-01-22,105.35291666666666,,105.35291666666666
429,2018-01-23,109.995,,109.995
429,2018-01-24,108.95583333333333,,108.95583333333333
429,2018-01-25,116.40375,,116.40375
429,2018-01-26,103.80583333333334,,103.80583333333334
429,2018-01-27,109.88916666666667,,109.88916666666667
429,2018-01-28,98.83333333333333,,98.83333333333333
429,2018-01-29,106.50458333333334,,106.50458333333334
429,2018-01-30,111.37374999999999,,111.37374999999999
429,2018-01-31,80.93375,,80.93375
429,2018-02-01,94.35291666666666,,94.35291666666666
429,2018-02-02,106.75,,106.75
429,2018-02-03,109.09208333333333,,109.09208333333333
429,2018-02-04,108.1675,,108.1675
429,2018-02-05,106.96541666666667,,106.96541666666667
429,2018-02-06,109.16333333333334,,109.16333333333334
429,2018-02-07,105.245,,105.245
429,2018-02-08,86.61958333333332,,86.61958333333332
429,2018-02-09,103.7375,,103.7375
429,2018-02-10,91.16791666666667,,91.16791666666667
429,2018-02-11,85.74208333333333,,85.74208333333333
429,2018-02-12,92.88666666666667,,92.88666666666667
429,2018-02-13,100.26291666666667,,100.26291666666667
429,2018-02-14,98.04166666666667,,98.04166666666667
429,2018-02-15,94.58833333333332,,94.58833333333332
429,2018-02-16,87.165,,87.165
429,2018-02-17,52.20666666666667,,52.20666666666667
429,2018-02-18,51.8125,,51.8125
429,2018-02-19,80.36,,80.36
429,2018-02-20,112.58625,,112.58625
429,2018-02-21,118.34708333333333,,118.34708333333333
429,2018-02-22,109.37708333333335,,109.37708333333335
429,2018-02-23,118.76625,,118.76625
429,2018-02-24,115.00041666666668,,115.00041666666668
429,2018-02-25,115.02208333333334,,115.02208333333334
429,2018-02-26,120.46958333333333,,120.46958333333333
429,2018-02-27,119.54333333333334,,119.54333333333334
429,2018-02-28,115.96083333333333,,115.96083333333333
429,2018-03-01,104.265,,104.265
429,2018-03-02,115.12625000000001,,115.12625000000001
429,2018-03-03,113.34208333333333,,113.34208333333333
429,2018-03-04,112.59708333333333,,112.59708333333333
429,2018-03-05,112.71749999999999,,112.71749999999999
429,2018-03-06,108.57333333333334,,108.57333333333334
429,2018-03-07,109.19166666666666,,109.19166666666666
429,2018-03-08,103.74916666666667,,103.74916666666667
429,2018-03-09,111.9325,,111.9325
429,2018-03-10,112.52333333333333,,112.52333333333333
429,2018-03-11,93.36208333333333,,93.36208333333333
429,2018-03-12,89.97541666666666,,89.97541666666666
429,2018-03-13,104.55958333333332,,104.55958333333332
429,2018-03-14,113.92,,113.92
429,2018-03-15,112.04291666666667,,112.04291666666667
429,2018-03-16,111.09625,,111.09625
429,2018-03-17,107.41666666666667,,107.41666666666667
429,2018-03-18,107.04625,,107.04625
429,2018-03-19,111.65666666666668,,111.65666666666668
429,2018-03-20,109.09291666666667,,109.09291666666667
429,2018-03-21,109.92166666666667,,109.92166666666667
429,2018-03-22,111.03166666666668,,111.03166666666668
429,2018-03-23,59.61041666666667,,59.61041666666667
429,2018-03-24,106.41208333333333,,106.41208333333333
429,2018-03-25,105.91833333333334,,105.91833333333334
429,2018-03-26,110.21541666666667,,110.21541666666667
429,2018-03-27,108.2325,,108.2325
429,2018-03-28,108.63333333333333,,108.63333333333333
429,2018-03-29,105.68666666666667,,105.68666666666667
429,2018-03-30,110.9225,,110.9225
429,2018-03-31,115.42416666666666,,115.42416666666666
429,2018-04-01,113.17166666666667,,113.17166666666667
429,2018-04-02,108.165,,108.165
429,2018-04-03,115.94958333333334,,115.94958333333334
429,2018-04-04,115.05291666666666,,115.05291666666666
429,2018-04-05,113.96375,,113.96375
429,2018-04-06,114.85374999999999,,114.85374999999999
429,2018-04-07,111.15333333333332,,111.15333333333332
429,2018-04-08,109.70416666666667,,109.70416666666667
429,2018-04-09,114.34708333333333,,114.34708333333333
429,2018-04-10,114.68791666666668,,114.68791666666668
429,2018-04-11,89.33,,89.33
429,2018-04-12,114.53250000000001,,114.53250000000001
429,2018-04-13,119.02791666666667,,119.02791666666667
429,2018-04-14,116.54416666666667,,116.54416666666667
429,2018-04-15,114.52916666666665,,114.52916666666665
429,2018-04-16,118.90041666666667,,118.90041666666667
429,2018-04-17,80.32666666666667,,80.32666666666667
429,2018-04-18,54.38708333333333,,54.38708333333333
429,2018-04-19,93.50416666666666,,93.50416666666666
429,2018-04-20,83.32583333333334,,83.32583333333334
429,2018-04-21,114.03791666666666,,114.03791666666666
429,2018-04-22,113.15083333333332,,113.15083333333332
429,2018-04-23,122.71208333333334,,122.71208333333334
429,2018-04-24,120.4375,,120.4375
429,2018-04-25,119.05166666666666,,119.05166666666666
429,2018-04-26,112.98375,,112.98375
429,2018-04-27,115.47874999999999,,115.47874999999999
429,2018-04-28,112.77208333333334,,112.77208333333334
429,2018-04-29,109.52,,109.52
429,2018-04-30,117.81333333333333,,117.81333333333333
429,2018-05-01,121.00833333333333,,121.00833333333333
429,2018-05-02,121.13083333333333,,121.13083333333333
429,2018-05-03,116.52291666666667,,116.52291666666667
429,2018-05-04,104.28541666666666,,104.28541666666666
429,2018-05-05,71.215,,71.215
429,2018-05-06,60.81708333333333,,60.81708333333333
429,2018-05-07,39.56458333333333,,39.56458333333333
429,2018-05-08,38.62833333333334,,38.62833333333334
429,2018-05-09,50.51666666666667,,50.51666666666667
429,2018-05-10,70.66416666666667,,70.66416666666667
429,2018-05-11,70.72583333333334,,70.72583333333334
429,2018-05-12,59.583333333333336,,59.583333333333336
429,2018-05-13,73.37583333333333,,73.37583333333333
429,2018-05-14,72.22041666666667,,72.22041666666667
429,2018-05-15,72.48541666666667,,72.48541666666667
429,2018-05-16,62.07083333333333,,62.07083333333333
429,2018-05-17,53.52708333333334,,53.52708333333334
429,2018-05-18,62.192499999999995,,62.192499999999995
429,2018-05-19,34.51208333333333,,34.51208333333333
429,2018-05-20,31.72,,31.72
429,2018-05-21,52.37416666666667,,52.37416666666667
429,2018-05-22,65.11291666666666,,65.11291666666666
429,2018-05-23,62.705000000000005,,62.705000000000005
429,2018-05-24,44.885416666666664,,44.885416666666664
429,2018-05-25,54.470416666666665,,54.470416666666665
429,2018-05-26,71.57958333333333,,71.57958333333333
429,2018-05-27,67.24083333333333,,67.24083333333333
429,2018-05-28,69.02208333333333,,69.02208333333333
429,2018-05-29,64.05083333333333,,64.05083333333333
429,2018-05-30,60.943333333333335,,60.943333333333335
429,2018-05-31,56.98583333333334,,56.98583333333334
429,2018-06-01,56.28791666666667,,56.28791666666667
429,2018-06-02,54.979166666666664,,54.979166666666664
429,2018-06-03,54.54291666666666,,54.54291666666666
429,2018-06-04,61.61041666666667,,61.61041666666667
429,2018-06-05,58.13958333333333,,58.13958333333333
429,2018-06-06,64.10000000000001,,64.10000000000001
429,2018-06-07,63.70916666666667,,63.70916666666667
429,2018-06-08,37.259166666666665,,37.259166666666665
429,2018-06-09,0.0,,0.0
429,2018-06-10,23.866249999999997,,23.866249999999997
429,2018-06-11,40.454166666666666,,40.454166666666666
429,2018-06-12,41.720416666666665,,41.720416666666665
429,2018-06-13,34.056666666666665,,34.056666666666665
429,2018-06-14,29.780416666666667,,29.780416666666667
429,2018-06-15,32.55166666666667,,32.55166666666667
429,2018-06-16,40.7675,,40.7675
429,2018-06-17,31.851249999999997,,31.851249999999997
429,2018-06-18,38.550000000000004,,38.550000000000004
429,2018-06-19,16.555,,16.555
429,2018-06-20,26.980416666666667,,26.980416666666667
429,2018-06-21,41.581250000000004,,41.581250000000004
429,2018-06-22,36.334583333333335,,36.334583333333335
429,2018-06-23,56.093333333333334,,56.093333333333334
429,2018-06-24,58.24208333333333,,58.24208333333333
429,2018-06-25,54.790416666666665,,54.790416666666665
429,2018-06-26,56.581250000000004,,56.581250000000004
429,2018-06-27,50.78375,,50.78375
429,2018-06-28,54.897083333333335,,54.897083333333335
429,2018-06-29,59.85583333333333,,59.85583333333333
429,2018-06-30,52.25791666666667,,52.25791666666667
429,2018-07-01,57.12625,,57.12625
429,2018-07-02,57.96041666666667,,57.96041666666667
429,2018-07-03,55.55291666666667,,55.55291666666667
429,2018-07-04,59.44125,,59.44125
429,2018-07-05,64.17583333333333,,64.17583333333333
429,2018-07-06,57.66458333333333,,57.66458333333333
429,2018-07-07,58.07,,58.07
429,2018-07-08,60.657916666666665,,60.657916666666665
429,2018-07-09,59.75875,,59.75875
429,2018-07-10,61.260416666666664,,61.260416666666664
429,2018-07-11,44.14125000000001,,44.14125000000001
429,2018-07-12,70.30916666666667,,70.30916666666667
429,2018-07-13,89.15333333333332,,89.15333333333332
429,2018-07-14,118.5575,,118.5575
429,2018-07-15,117.82333333333334,,117.82333333333334
429,2018-07-16,110.00208333333335,,110.00208333333335
429,2018-07-17,48.629999999999995,,48.629999999999995